SCP
0 0 0 0 0 0 0 0 0 0 0 0 0 0 0 0 0 0 0 -0 -0 -0 -0 -0 -0 -0 -0 -0 -0 -0 -0 -0 0 0 0 0 0 0 0 0 0 0 -0 -0 -0 0 0 0 0
0 0 0 0 0 0 0 0 0 0 0 0 0 0 0 0 0 0 0 -0 -0 -0 -0 -0 -0 -0 -0 -0 -0 -0 0 0 0 0 0 0 0 0 0 0 0 0 -0 0 0 0 0 0 0
0 0 0 0 0 0 0 0 0 0 0 -0 0 0 0 0 0 0 -0 -0 -0 -0 -0 -0 -0 -0 -0 -0 -0 0 0 0 0 0 0 0 0 0 0 0 0 0 0 0 0 0 0 0 0
0 0 0 0 -0 0 0 0 0 0 0 0 0 0 0 0 -0 0 -0 -0 -0 -0 -0 -0 -0 -0 -0 -0 -0 -0 0 0 0 0 0 0 0 -0 -0 0 0 0 0 0 0 0 0 0 0
0 0 0 0 -0 0 0 0 0 -0 0 -0 0 0 0 0 0 -0 -0 -0 -0 -0 -0 -0 -0 -0 -0 -0 -0 0 0 0 0 0 0 0 0 0 0 0 0 0 0 0 0 0 0 0 0
0 0 0 0 -0 -0 0 0 0 0 0 0 0 0 0 0 0 0 0 -0 -0 -0 -0 -0 -0 -0 -0 -0 -0 -0 -0 0 0 0 0 0 0 0 0 0 0 0 0 0 0 0 0 0 0
0 0 0 0 0 0 0 0 0 0 0 0 0 0 0 0 0 0 0 -0 -0 -0 -0 0 0 -0 -0 -0 -0 -0 -0 -0 0 0 -0 -0 -0 0 0 0 0 0 0 0 0 0 0 0 0
0 0 0 -0 0 0 0 0 0 0 0 0 0 0 0 0 0 0 0 -0 -0 -0 -0 -0 -0 -0 -0 -0 -0 -0 -0 -0 -0 -0 -0 0 0 0 0 0 0 0 0 0 0 0 0 0 0
0 0 0 0 0 -0 0 0 0 0 0 0 0 0 0 -0 0 0 0 0 -0 -0 -0 -0 -0 -0 -0 -0 -0 -0 -0 -0 -0 -0 0 0 0 0 0 0 0 0 0 0 0 0 0 0 0
0 0 0 0 -0 0 0 0 0 0 0 0 0 0 0 -0 -0 0 0 0 -0 -0 -0 -0 -0 -0 -0 -0 -0 -0 0 0 0 0 0 0 0 0 0 0 0 0 0 0 0 0 0 0 0
0 0 0 0 -0 -0 0 0 0 0 0 0 0 0 -0 0 0 0 0 0 -0 0 -0 -0 -0 -0 -0 -0 0 0 0 0 0 0 0 0 0 0 0 0 0 0 0 0 0 0 0 0 0
0 0 -0 0 -0 -0 0 0 0 0 0 0 0 -0 0 -0 -0 -0 0 0 0 0 0 -0 -0 -0 -0 0 0 0 0 0 -0 -0 0 0 0 -0 0 0 0 0 0 0 0 0 0 0 0
0 -0 -0 0 -0 -0 -0 0 0 0 0 0 0 -0 -0 -0 -0 0 0 0 0 0 0 0 0 -0 -0 -0 0 0 0 0 0 -0 -0 0 0 0 0 0 0 0 0 0 0 0 0 0 0
0 0 -0 -0 0 0 0 -0 -0 0 0 0 0 0 -0 -0 -0 -0 -0 0 -0 0 -0 0 0 0 0 0 0 0 0 0 0 0 0 0 0 -0 0 0 0 0 0 0 0 0 0 0 0
0 0 -0 -0 0 0 0 0 0 0 0 -0 -0 0 0 -0 -0 -0 -0 -0 -0 0 -0 -0 -0 -0 -0 0 0 0 0 0 0 0 0 0 -0 -0 0 0 0 0 0 0 0 0 0 0 0
0 0 0 -0 -0 0 -0 0 0 0 0 0 -0 -0 0 -0 -0 -0 -0 -0 -0 0 -0 -0 -0 -0 0 0 0 0 0 0 0 0 0 0 0 0 0 0 0 0 0 0 0 0 0 0 0
0 0 -0 -0 -0 -0 0 0 0 0 -0 0 -0 -0 -0 0 -0 -0 -0 -0 -0 0 -0 -0 -0 -0 0 0 0 0 0 0 0 0 0 0 0 0 0 0 0 0 0 0 0 0 0 0 0
0 0 -0 0 -0 -0 0 -0 -0 -0 -0 0 -0 -0 -0 -0 -0 -0 0 0 0 0 0 -0 -0 -0 0 0 0 0 0 0 0 0 0 0 0 0 0 0 0 0 0 0 0 0 0 0 0
0 0 0 -0 0 0 -0 -0 -0 -0 0 0 -0 -0 0 0 0 0 0 0 0 0 0 -0 -0 0 0 0 0 0 0 0 0 0 0 0 0 0 0 0 0 0 0 0 0 0 0 0 0
0 0 -0 -0 -0 0 -0 -0 -0 -0 0 0 0 0 0 0 0 0 0 0 0 0 0 0 -0 0 0 0 0 0 0 0 0 0 0 0 0 0 0 0 0 0 0 0 0 0 0 0 0
0 0 0 0 -0 0 0 -0 -0 -0 -0 -0 0 0 0 0 0 0 0 0 0 0 0 0 0 0 0 0 0 0 0 0 0 0 0 0 0 0 0 0 0 0 0 0 0 0 0 0 0
0 0 0 0 0 0 0 0 0 -0 -0 -0 -0 0 0 0 0 0 0 0 0 0 0 0 0 0 0 0 0 0 0 0 0 0 0 0 0 0 0 0 0 0 0 0 0 0 0 0 0
0 0 0 0 0 0 0 0 0 0 0 0 -0 -0 0 0 0 0 0 0 0 0 0 0 0 0 0 0 0 0 0 0 0 0 0 0 0 0 0 0 0 0 0 0 0 0 0 0 0
0 0 0 0 0 0 0 0 0 0 0 0 0 0 0 0 0 0 0 0 0 0 0 0 0 0 0 0 0 0 0 0 0 0 0 0 0 0 0 0 0 0 0 0 0 0 0 0 0
0 0 0 0 0 0 0 0 0 0 0 0 0 0 0 0 0 0 0 0 0 0 0 0 0 0 0 0 0 0 0 0 0 0 0 0 0 0 0 0 0 0 0 0 0 0 0 0 0
0 0 0 0 0 0 0 0 0 0 0 0 0 0 0 0 0 0 0 0 0 0 0 0 0 0 0 0 0 0 0 0 0 0 0 0 0 0 0 0 0 0 0 0 0 0 0 0 0
0 0 0 0 0 0 0 0 0 0 0 0 0 0 0 0 0 0 0 0 0 0 0 0 0 0 0 0 0 0 0 0 0 0 0 0 0 0 0 0 0 0 0 0 0 0 0 0 0
0 0 0 0 0 0 0 0 0 0 0 0 0 0 0 0 0 0 0 0 0 0 0 0 0 0 0 0 0 0 0 0 0 0 0 0 0 0 0 0 0 0 0 0 0 0 0 0 0
0 0 0 0 0 0 0 0 0 0 0 0 0 0 -0 -0 -0 -0 0 0 0 0 0 0 0 0 0 0 0 0 0 0 0 0 0 0 0 0 0 0 0 0 0 0 0 0 0 0 0
0 0 0 0 0 0 0 0 0 0 0 0 0 0 0 -0 -0 -0 -0 -0 0 0 0 0 0 0 0 0 0 0 0 0 0 0 0 0 0 0 0 0 0 0 0 0 0 0 0 0 0
Wind_Speed_500mb
18 2 8 6 7 7 7 8 6 8 7 8 11 14 16 11 6 5 30 31 19 26 40 46 39 32 29 29 28 29 23 26 23 23 22 22 26 28 25 27 27 30 30 34 28 33 29 33 39
14 6 5 1 6 4 10 5 12 5 17 18 14 5 4 5 6 31 40 28 24 27 40 45 38 30 29 28 27 27 23 23 22 24 25 25 20 26 23 26 26 26 26 28 28 30 31 34 36
12 13 6 7 5 9 5 5 14 15 16 9 8 11 8 5 13 40 27 37 28 30 41 39 32 31 29 28 25 26 25 24 22 21 21 19 22 20 23 25 23 25 23 28 30 31 35 39 44
16 5 6 5 13 14 6 12 28 18 11 8 21 14 14 6 14 24 34 33 29 29 38 40 34 30 29 27 31 25 24 23 24 22 22 19 20 21 21 22 23 24 25 23 27 28 33 38 37
15 7 1 2 15 11 6 32 36 13 19 9 10 8 12 19 15 18 41 37 32 28 28 31 37 37 34 29 27 24 24 21 20 20 18 18 18 19 20 21 21 22 22 23 26 27 30 30 32
8 3 5 5 13 15 12 33 29 21 25 15 14 15 8 18 21 30 43 40 32 28 27 28 36 35 34 29 30 28 22 21 18 19 18 17 18 18 18 18 19 18 20 22 23 26 28 28 26
4 6 7 8 10 16 11 27 22 26 20 10 13 9 23 30 21 45 44 38 34 31 29 32 34 31 36 30 26 24 22 20 18 17 17 17 16 16 16 16 17 17 17 20 22 22 24 26 26
6 7 7 7 7 9 6 6 27 27 5 19 10 13 15 43 31 51 43 39 33 32 27 30 28 35 29 30 30 26 24 19 18 17 16 16 15 15 14 15 14 14 14 17 18 20 21 23 23
4 6 6 7 9 4 4 7 10 19 23 8 7 13 13 45 39 55 49 44 40 35 29 26 25 30 30 29 26 23 22 21 19 17 17 17 15 15 12 11 11 12 11 14 15 17 18 19 19
6 5 8 5 7 4 14 14 8 5 18 11 18 13 29 42 49 58 62 57 52 45 36 30 26 25 28 29 26 23 22 21 19 18 18 16 15 13 13 9 10 10 10 12 13 15 15 14 15
8 10 9 20 19 13 10 17 13 10 5 25 37 43 46 43 47 54 61 58 55 47 42 39 30 24 26 30 26 24 23 23 22 22 20 18 16 13 5 5 6 7 6 10 9 12 13 13 17
7 13 21 24 11 13 5 15 21 8 18 20 21 40 48 48 50 52 59 59 56 52 48 45 38 33 29 26 26 24 28 27 26 25 25 20 16 11 13 10 9 7 7 9 9 11 13 14 15
3 7 24 22 19 13 17 17 17 34 32 27 16 50 47 48 46 45 43 49 52 53 49 53 49 44 39 36 34 30 29 28 25 24 20 19 19 20 18 11 7 5 6 7 8 10 12 12 12
17 13 24 31 35 21 13 20 23 17 29 37 29 49 52 49 46 44 48 53 58 52 51 50 57 55 53 49 43 36 30 25 26 26 24 25 23 22 17 13 10 9 9 10 10 10 11 10 9
22 13 17 27 30 15 21 11 14 54 48 53 35 47 53 49 50 50 49 58 57 55 50 52 56 57 57 53 45 38 34 31 29 28 25 24 25 23 20 17 14 12 13 13 12 12 11 11 9
6 4 7 16 13 7 18 16 22 38 21 58 64 50 60 59 58 53 49 51 59 59 61 55 52 58 58 55 48 42 41 37 33 30 27 26 27 27 24 20 17 16 16 15 14 13 12 10 10
7 5 5 13 7 8 7 13 23 24 42 25 48 64 61 67 70 62 55 58 60 63 63 62 58 54 56 56 52 48 44 43 39 34 31 29 29 29 27 23 21 21 19 18 18 16 13 11 10
7 7 11 11 9 6 6 19 20 47 44 47 48 54 48 45 73 66 62 61 62 63 65 61 61 55 51 52 55 53 50 47 46 42 37 34 31 31 30 28 26 26 24 22 21 18 15 13 12
1 6 10 16 2 5 10 16 25 38 27 26 30 44 49 37 33 65 66 65 65 64 67 68 67 62 55 57 61 63 62 53 50 46 42 39 35 34 33 32 31 31 28 25 24 23 19 16 15
3 7 15 13 10 10 13 18 13 19 18 32 30 11 41 42 39 35 71 68 67 66 67 69 69 66 61 58 59 62 56 50 45 41 42 43 42 38 36 36 36 35 33 31 29 26 22 20 20
6 7 5 5 12 9 7 13 15 12 48 62 59 51 51 33 20 23 70 69 68 66 66 69 70 69 66 59 54 55 51 52 53 53 49 48 46 44 41 38 38 39 38 34 31 29 26 24 25
7 3 4 7 10 5 10 4 12 8 19 20 53 48 48 49 39 24 34 66 69 67 67 68 70 70 70 63 60 62 64 64 59 52 47 47 49 50 46 43 43 43 42 39 35 32 31 32 30
9 5 5 2 2 6 8 10 6 8 13 14 28 49 43 49 44 47 29 8 68 70 65 64 67 70 71 68 66 63 66 62 55 51 50 49 48 50 51 50 48 48 46 43 40 39 38 37 36
7 8 8 4 6 4 12 10 8 3 8 6 21 49 54 51 54 56 55 29 11 68 69 62 62 66 69 69 70 68 67 63 60 60 59 56 53 52 54 54 54 51 51 50 45 43 44 42 40
7 8 7 5 5 9 5 7 11 11 12 16 23 54 55 56 63 66 56 60 33 4 61 67 62 62 62 65 67 69 68 67 68 64 64 61 59 59 55 57 59 57 55 53 51 51 50 47 48
7 9 8 4 3 7 6 8 9 13 34 40 51 54 53 56 56 63 63 57 49 43 6 55 63 60 59 61 63 64 67 71 73 70 68 65 64 62 55 56 60 59 58 57 58 58 57 55 55
5 1 7 2 4 4 4 8 12 6 18 30 41 54 54 53 55 59 55 52 57 44 34 10 24 45 51 57 60 64 67 71 74 73 72 73 69 66 61 59 61 61 61 62 62 65 63 60 58
5 4 6 5 3 6 4 8 9 8 15 10 24 47 48 47 47 53 54 52 51 47 44 29 11 23 33 44 56 63 65 67 69 72 74 77 76 73 71 67 67 66 67 67 67 70 68 67 66
2 5 2 5 9 6 3 7 14 24 14 14 29 45 48 49 50 50 50 49 47 45 51 48 32 28 15 39 42 43 56 66 68 68 68 71 73 77 80 80 75 74 72 71 72 75 74 74 72
3 2 6 8 10 2 7 5 14 10 21 40 38 42 43 45 48 51 53 52 54 54 54 56 57 39 32 28 26 43 47 46 53 63 66 65 68 69 75 81 85 84 81 78 79 80 80 80 81
Wind_Direction_500mb
333 55 352 334 44 65 278 293 125 87 56 96 75 82 123 69 60 168 134 173 189 174 163 158 141 144 139 140 140 133 126 116 122 116 105 103 97 89 91 92 90 84 86 87 79 79 79 83 95
13 39 338 285 95 52 285 128 85 78 118 95 89 68 100 92 101 141 154 195 196 173 162 160 153 149 145 150 136 140 133 128 123 117 107 101 97 99 87 88 92 87 86 87 83 86 83 89 98
353 317 309 129 171 187 164 257 135 113 104 120 102 64 79 107 123 149 168 179 193 165 163 156 158 151 149 149 144 137 136 132 123 112 111 115 110 105 104 97 93 94 92 87 87 85 92 105 110
346 336 247 100 254 266 177 219 134 120 93 97 108 76 93 129 155 166 172 185 168 168 163 159 161 160 154 156 147 146 142 143 136 132 121 115 116 112 103 102 101 99 93 92 91 93 97 105 118
326 268 11 272 269 262 151 158 143 146 141 131 124 132 94 135 163 164 171 173 181 172 164 170 158 161 165 163 160 158 152 149 149 144 132 122 111 105 103 102 100 99 97 91 88 93 97 105 114
321 359 38 265 270 289 169 170 135 118 130 135 118 106 127 172 182 172 167 175 185 180 183 189 171 169 162 165 166 159 163 158 151 139 130 120 110 106 105 104 103 98 94 91 92 93 97 98 100
128 82 243 280 272 313 183 151 130 138 141 161 138 77 142 173 186 167 169 180 187 196 197 199 180 177 171 173 178 184 170 166 153 145 135 125 120 114 110 108 101 97 97 94 92 92 92 94 92
340 102 297 279 285 291 317 93 96 108 113 143 133 154 175 185 175 165 173 182 193 203 206 196 196 180 184 177 180 175 177 168 163 157 148 139 131 122 112 104 101 100 99 96 100 100 98 94 94
282 49 269 270 318 306 74 67 51 103 128 109 125 160 180 172 174 168 175 184 193 208 212 197 202 196 193 189 187 185 184 176 172 165 160 152 143 134 118 117 121 109 106 107 107 103 107 102 98
135 130 250 265 310 60 19 31 123 104 123 111 114 134 153 166 176 173 182 187 194 204 209 216 201 196 199 193 194 197 193 186 182 174 169 164 170 156 135 138 122 119 125 119 117 113 108 114 110
219 222 258 297 344 53 26 351 356 150 192 189 171 166 170 175 183 184 189 197 203 206 208 219 216 207 210 202 192 201 204 198 194 187 181 181 190 173 145 169 151 136 138 132 133 126 119 118 119
202 275 291 303 315 4 10 319 329 285 225 254 235 206 180 184 190 195 196 202 206 212 210 215 217 220 222 216 207 213 210 203 201 197 193 194 201 187 208 191 184 160 171 150 151 141 133 130 121
316 304 310 311 306 274 300 289 269 284 277 278 229 195 195 194 196 202 204 208 214 219 217 209 212 218 222 225 227 227 219 210 209 208 212 212 211 213 212 199 193 178 174 162 157 147 141 140 132
304 300 303 296 290 273 226 252 251 259 265 259 214 198 201 202 204 201 205 208 214 223 224 216 213 215 219 228 229 228 225 222 220 220 217 219 216 212 210 206 208 204 196 188 179 165 156 143 136
297 306 308 264 254 233 233 315 230 254 253 256 243 207 208 212 208 210 215 213 217 225 227 225 221 220 221 225 227 227 227 227 226 225 217 218 217 214 208 211 211 209 204 196 190 187 174 161 163
273 44 344 295 175 225 154 270 264 282 291 244 238 235 215 220 217 222 218 217 219 222 225 229 228 227 224 223 225 223 226 229 229 231 224 220 218 215 212 216 217 218 211 206 203 204 195 184 193
349 278 281 312 161 136 151 254 263 294 306 278 243 237 239 226 219 218 216 217 217 223 225 226 231 233 228 223 223 224 225 229 233 235 233 227 220 218 219 221 225 226 218 213 212 209 208 206 215
307 338 325 299 295 170 224 264 275 275 282 279 268 255 241 239 224 220 218 217 218 221 226 231 233 236 233 226 222 223 228 230 233 237 236 231 227 223 223 224 226 230 221 216 217 215 216 216 217
306 329 303 284 220 277 253 281 287 297 296 304 271 254 228 229 231 223 217 215 215 217 221 226 228 234 233 225 222 222 227 228 230 231 234 233 231 229 227 226 228 231 226 220 221 221 220 218 216
341 301 288 291 332 16 299 310 326 15 15 35 27 223 232 226 240 242 213 210 212 215 219 224 229 235 237 235 231 230 233 235 239 238 235 234 235 234 233 230 231 233 230 224 225 225 219 219 211
281 235 281 276 331 331 22 19 10 350 43 47 47 55 55 60 42 235 203 209 212 214 219 224 230 234 239 242 237 234 234 237 237 236 236 235 237 237 236 234 233 234 233 229 230 230 228 224 218
278 357 18 7 48 280 75 207 340 344 32 29 40 42 43 42 45 56 213 205 213 221 225 229 232 234 238 244 241 237 234 234 239 242 244 242 240 240 239 236 234 235 235 230 230 233 233 231 224
239 327 273 235 311 14 328 95 244 17 38 19 29 39 45 39 40 37 28 239 219 223 228 232 234 233 237 240 245 245 243 245 249 251 250 247 245 243 242 239 236 236 237 237 233 234 234 234 230
321 331 341 104 103 358 239 124 252 188 137 41 42 52 47 43 37 36 37 29 217 225 227 233 233 236 238 241 247 248 249 250 248 248 248 250 250 247 244 241 239 238 238 239 238 239 238 236 236
42 44 359 27 19 224 207 58 216 179 131 122 83 60 49 46 43 38 32 33 32 243 226 231 235 238 242 245 249 252 253 253 254 255 255 254 253 250 247 245 241 239 240 240 241 241 243 242 240
234 142 148 227 191 266 8 168 211 160 98 86 78 69 56 48 44 41 40 38 35 38 7 231 236 241 246 249 253 256 259 258 258 259 259 259 257 257 256 253 250 246 243 243 243 244 244 245 245
325 6 188 195 296 63 213 31 18 142 77 70 71 67 56 49 47 43 39 36 41 37 33 338 258 250 249 253 257 258 261 262 262 263 262 261 260 259 257 254 253 250 246 243 244 245 245 247 250
187 252 42 11 277 282 291 179 203 194 87 69 64 68 59 51 47 44 39 35 37 37 40 36 319 277 280 269 264 262 264 267 268 267 266 264 264 262 261 258 255 253 250 245 244 246 246 246 248
44 312 216 156 154 175 310 13 341 104 122 94 71 68 60 51 44 42 37 33 31 34 34 29 30 37 331 272 276 276 267 265 268 270 270 268 266 262 260 261 258 256 253 251 247 246 247 246 247
176 14 117 119 303 328 143 34 332 81 90 82 74 67 60 53 47 42 37 33 30 31 28 25 23 23 12 3 322 271 281 283 275 274 276 276 273 270 263 260 260 260 257 254 251 249 248 246 247
Wind_Speed_850mb
18 2 8 6 7 7 7 8 6 8 7 8 11 14 16 11 6 5 30 31 19 26 40 46 39 32 29 29 28 29 23 26 23 23 22 22 26 28 25 27 27 30 30 34 28 33 29 33 39
14 6 5 1 6 4 10 5 12 5 17 18 14 5 4 5 6 31 40 28 24 27 40 45 38 30 29 28 27 27 23 23 22 24 25 25 20 26 23 26 26 26 26 28 28 30 31 34 36
12 13 6 7 5 9 5 5 14 15 16 9 8 11 8 5 13 40 27 37 28 30 41 39 32 31 29 28 25 26 25 24 22 21 21 19 22 20 23 25 23 25 23 28 30 31 35 39 44
16 5 6 5 13 14 6 12 28 18 11 8 21 14 14 6 14 24 34 33 29 29 38 40 34 30 29 27 31 25 24 23 24 22 22 19 20 21 21 22 23 24 25 23 27 28 33 38 37
15 7 1 2 15 11 6 32 36 13 19 9 10 8 12 19 15 18 41 37 32 28 28 31 37 37 34 29 27 24 24 21 20 20 18 18 18 19 20 21 21 22 22 23 26 27 30 30 32
8 3 5 5 13 15 12 33 29 21 25 15 14 15 8 18 21 30 43 40 32 28 27 28 36 35 34 29 30 28 22 21 18 19 18 17 18 18 18 18 19 18 20 22 23 26 28 28 26
4 6 7 8 10 16 11 27 22 26 20 10 13 9 23 30 21 45 44 38 34 31 29 32 34 31 36 30 26 24 22 20 18 17 17 17 16 16 16 16 17 17 17 20 22 22 24 26 26
6 7 7 7 7 9 6 6 27 27 5 19 10 13 15 43 31 51 43 39 33 32 27 30 28 35 29 30 30 26 24 19 18 17 16 16 15 15 14 15 14 14 14 17 18 20 21 23 23
4 6 6 7 9 4 4 7 10 19 23 8 7 13 13 45 39 55 49 44 40 35 29 26 25 30 30 29 26 23 22 21 19 17 17 17 15 15 12 11 11 12 11 14 15 17 18 19 19
6 5 8 5 7 4 14 14 8 5 18 11 18 13 29 42 49 58 62 57 52 45 36 30 26 25 28 29 26 23 22 21 19 18 18 16 15 13 13 9 10 10 10 12 13 15 15 14 15
8 10 9 20 19 13 10 17 13 10 5 25 37 43 46 43 47 54 61 58 55 47 42 39 30 24 26 30 26 24 23 23 22 22 20 18 16 13 5 5 6 7 6 10 9 12 13 13 17
7 13 21 24 11 13 5 15 21 8 18 20 21 40 48 48 50 52 59 59 56 52 48 45 38 33 29 26 26 24 28 27 26 25 25 20 16 11 13 10 9 7 7 9 9 11 13 14 15
3 7 24 22 19 13 17 17 17 34 32 27 16 50 47 48 46 45 43 49 52 53 49 53 49 44 39 36 34 30 29 28 25 24 20 19 19 20 18 11 7 5 6 7 8 10 12 12 12
17 13 24 31 35 21 13 20 23 17 29 37 29 49 52 49 46 44 48 53 58 52 51 50 57 55 53 49 43 36 30 25 26 26 24 25 23 22 17 13 10 9 9 10 10 10 11 10 9
22 13 17 27 30 15 21 11 14 54 48 53 35 47 53 49 50 50 49 58 57 55 50 52 56 57 57 53 45 38 34 31 29 28 25 24 25 23 20 17 14 12 13 13 12 12 11 11 9
6 4 7 16 13 7 18 16 22 38 21 58 64 50 60 59 58 53 49 51 59 59 61 55 52 58 58 55 48 42 41 37 33 30 27 26 27 27 24 20 17 16 16 15 14 13 12 10 10
7 5 5 13 7 8 7 13 23 24 42 25 48 64 61 67 70 62 55 58 60 63 63 62 58 54 56 56 52 48 44 43 39 34 31 29 29 29 27 23 21 21 19 18 18 16 13 11 10
7 7 11 11 9 6 6 19 20 47 44 47 48 54 48 45 73 66 62 61 62 63 65 61 61 55 51 52 55 53 50 47 46 42 37 34 31 31 30 28 26 26 24 22 21 18 15 13 12
1 6 10 16 2 5 10 16 25 38 27 26 30 44 49 37 33 65 66 65 65 64 67 68 67 62 55 57 61 63 62 53 50 46 42 39 35 34 33 32 31 31 28 25 24 23 19 16 15
3 7 15 13 10 10 13 18 13 19 18 32 30 11 41 42 39 35 71 68 67 66 67 69 69 66 61 58 59 62 56 50 45 41 42 43 42 38 36 36 36 35 33 31 29 26 22 20 20
6 7 5 5 12 9 7 13 15 12 48 62 59 51 51 33 20 23 70 69 68 66 66 69 70 69 66 59 54 55 51 52 53 53 49 48 46 44 41 38 38 39 38 34 31 29 26 24 25
7 3 4 7 10 5 10 4 12 8 19 20 53 48 48 49 39 24 34 66 69 67 67 68 70 70 70 63 60 62 64 64 59 52 47 47 49 50 46 43 43 43 42 39 35 32 31 32 30
9 5 5 2 2 6 8 10 6 8 13 14 28 49 43 49 44 47 29 8 68 70 65 64 67 70 71 68 66 63 66 62 55 51 50 49 48 50 51 50 48 48 46 43 40 39 38 37 36
7 8 8 4 6 4 12 10 8 3 8 6 21 49 54 51 54 56 55 29 11 68 69 62 62 66 69 69 70 68 67 63 60 60 59 56 53 52 54 54 54 51 51 50 45 43 44 42 40
7 8 7 5 5 9 5 7 11 11 12 16 23 54 55 56 63 66 56 60 33 4 61 67 62 62 62 65 67 69 68 67 68 64 64 61 59 59 55 57 59 57 55 53 51 51 50 47 48
7 9 8 4 3 7 6 8 9 13 34 40 51 54 53 56 56 63 63 57 49 43 6 55 63 60 59 61 63 64 67 71 73 70 68 65 64 62 55 56 60 59 58 57 58 58 57 55 55
5 1 7 2 4 4 4 8 12 6 18 30 41 54 54 53 55 59 55 52 57 44 34 10 24 45 51 57 60 64 67 71 74 73 72 73 69 66 61 59 61 61 61 62 62 65 63 60 58
5 4 6 5 3 6 4 8 9 8 15 10 24 47 48 47 47 53 54 52 51 47 44 29 11 23 33 44 56 63 65 67 69 72 74 77 76 73 71 67 67 66 67 67 67 70 68 67 66
2 5 2 5 9 6 3 7 14 24 14 14 29 45 48 49 50 50 50 49 47 45 51 48 32 28 15 39 42 43 56 66 68 68 68 71 73 77 80 80 75 74 72 71 72 75 74 74 72
3 2 6 8 10 2 7 5 14 10 21 40 38 42 43 45 48 51 53 52 54 54 54 56 57 39 32 28 26 43 47 46 53 63 66 65 68 69 75 81 85 84 81 78 79 80 80 80 81
Wind_Direction_850mb
333 55 352 334 44 65 278 293 125 87 56 96 75 82 123 69 60 168 134 173 189 174 163 158 141 144 139 140 140 133 126 116 122 116 105 103 97 89 91 92 90 84 86 87 79 79 79 83 95
13 39 338 285 95 52 285 128 85 78 118 95 89 68 100 92 101 141 154 195 196 173 162 160 153 149 145 150 136 140 133 128 123 117 107 101 97 99 87 88 92 87 86 87 83 86 83 89 98
353 317 309 129 171 187 164 257 135 113 104 120 102 64 79 107 123 149 168 179 193 165 163 156 158 151 149 149 144 137 136 132 123 112 111 115 110 105 104 97 93 94 92 87 87 85 92 105 110
346 336 247 100 254 266 177 219 134 120 93 97 108 76 93 129 155 166 172 185 168 168 163 159 161 160 154 156 147 146 142 143 136 132 121 115 116 112 103 102 101 99 93 92 91 93 97 105 118
326 268 11 272 269 262 151 158 143 146 141 131 124 132 94 135 163 164 171 173 181 172 164 170 158 161 165 163 160 158 152 149 149 144 132 122 111 105 103 102 100 99 97 91 88 93 97 105 114
321 359 38 265 270 289 169 170 135 118 130 135 118 106 127 172 182 172 167 175 185 180 183 189 171 169 162 165 166 159 163 158 151 139 130 120 110 106 105 104 103 98 94 91 92 93 97 98 100
128 82 243 280 272 313 183 151 130 138 141 161 138 77 142 173 186 167 169 180 187 196 197 199 180 177 171 173 178 184 170 166 153 145 135 125 120 114 110 108 101 97 97 94 92 92 92 94 92
340 102 297 279 285 291 317 93 96 108 113 143 133 154 175 185 175 165 173 182 193 203 206 196 196 180 184 177 180 175 177 168 163 157 148 139 131 122 112 104 101 100 99 96 100 100 98 94 94
282 49 269 270 318 306 74 67 51 103 128 109 125 160 180 172 174 168 175 184 193 208 212 197 202 196 193 189 187 185 184 176 172 165 160 152 143 134 118 117 121 109 106 107 107 103 107 102 98
135 130 250 265 310 60 19 31 123 104 123 111 114 134 153 166 176 173 182 187 194 204 209 216 201 196 199 193 194 197 193 186 182 174 169 164 170 156 135 138 122 119 125 119 117 113 108 114 110
219 222 258 297 344 53 26 351 356 150 192 189 171 166 170 175 183 184 189 197 203 206 208 219 216 207 210 202 192 201 204 198 194 187 181 181 190 173 145 169 151 136 138 132 133 126 119 118 119
202 275 291 303 315 4 10 319 329 285 225 254 235 206 180 184 190 195 196 202 206 212 210 215 217 220 222 216 207 213 210 203 201 197 193 194 201 187 208 191 184 160 171 150 151 141 133 130 121
316 304 310 311 306 274 300 289 269 284 277 278 229 195 195 194 196 202 204 208 214 219 217 209 212 218 222 225 227 227 219 210 209 208 212 212 211 213 212 199 193 178 174 162 157 147 141 140 132
304 300 303 296 290 273 226 252 251 259 265 259 214 198 201 202 204 201 205 208 214 223 224 216 213 215 219 228 229 228 225 222 220 220 217 219 216 212 210 206 208 204 196 188 179 165 156 143 136
297 306 308 264 254 233 233 315 230 254 253 256 243 207 208 212 208 210 215 213 217 225 227 225 221 220 221 225 227 227 227 227 226 225 217 218 217 214 208 211 211 209 204 196 190 187 174 161 163
273 44 344 295 175 225 154 270 264 282 291 244 238 235 215 220 217 222 218 217 219 222 225 229 228 227 224 223 225 223 226 229 229 231 224 220 218 215 212 216 217 218 211 206 203 204 195 184 193
349 278 281 312 161 136 151 254 263 294 306 278 243 237 239 226 219 218 216 217 217 223 225 226 231 233 228 223 223 224 225 229 233 235 233 227 220 218 219 221 225 226 218 213 212 209 208 206 215
307 338 325 299 295 170 224 264 275 275 282 279 268 255 241 239 224 220 218 217 218 221 226 231 233 236 233 226 222 223 228 230 233 237 236 231 227 223 223 224 226 230 221 216 217 215 216 216 217
306 329 303 284 220 277 253 281 287 297 296 304 271 254 228 229 231 223 217 215 215 217 221 226 228 234 233 225 222 222 227 228 230 231 234 233 231 229 227 226 228 231 226 220 221 221 220 218 216
341 301 288 291 332 16 299 310 326 15 15 35 27 223 232 226 240 242 213 210 212 215 219 224 229 235 237 235 231 230 233 235 239 238 235 234 235 234 233 230 231 233 230 224 225 225 219 219 211
281 235 281 276 331 331 22 19 10 350 43 47 47 55 55 60 42 235 203 209 212 214 219 224 230 234 239 242 237 234 234 237 237 236 236 235 237 237 236 234 233 234 233 229 230 230 228 224 218
278 357 18 7 48 280 75 207 340 344 32 29 40 42 43 42 45 56 213 205 213 221 225 229 232 234 238 244 241 237 234 234 239 242 244 242 240 240 239 236 234 235 235 230 230 233 233 231 224
239 327 273 235 311 14 328 95 244 17 38 19 29 39 45 39 40 37 28 239 219 223 228 232 234 233 237 240 245 245 243 245 249 251 250 247 245 243 242 239 236 236 237 237 233 234 234 234 230
321 331 341 104 103 358 239 124 252 188 137 41 42 52 47 43 37 36 37 29 217 225 227 233 233 236 238 241 247 248 249 250 248 248 248 250 250 247 244 241 239 238 238 239 238 239 238 236 236
42 44 359 27 19 224 207 58 216 179 131 122 83 60 49 46 43 38 32 33 32 243 226 231 235 238 242 245 249 252 253 253 254 255 255 254 253 250 247 245 241 239 240 240 241 241 243 242 240
234 142 148 227 191 266 8 168 211 160 98 86 78 69 56 48 44 41 40 38 35 38 7 231 236 241 246 249 253 256 259 258 258 259 259 259 257 257 256 253 250 246 243 243 243 244 244 245 245
325 6 188 195 296 63 213 31 18 142 77 70 71 67 56 49 47 43 39 36 41 37 33 338 258 250 249 253 257 258 261 262 262 263 262 261 260 259 257 254 253 250 246 243 244 245 245 247 250
187 252 42 11 277 282 291 179 203 194 87 69 64 68 59 51 47 44 39 35 37 37 40 36 319 277 280 269 264 262 264 267 268 267 266 264 264 262 261 258 255 253 250 245 244 246 246 246 248
44 312 216 156 154 175 310 13 341 104 122 94 71 68 60 51 44 42 37 33 31 34 34 29 30 37 331 272 276 276 267 265 268 270 270 268 266 262 260 261 258 256 253 251 247 246 247 246 247
176 14 117 119 303 328 143 34 332 81 90 82 74 67 60 53 47 42 37 33 30 31 28 25 23 23 12 3 322 271 281 283 275 274 276 276 273 270 263 260 260 260 257 254 251 249 248 246 247